N1VL Weather Reports


time (UTC)temp
F
wind
direction
speed
knots
gust
knots
rain 1hr
in
rain 24hr
in
rain mn
in
humidity
%
barometer
mb
20260507142703 53 101 5.2 9.6 0.00 0.00 0.00 51 1022.1
20260507141803 52 87 5.2 8.7 0.00 0.00 0.00 51 1022.0
20260507140903 51 79 4.3 7.8 0.00 0.00 0.00 52 1022.0
20260507140003 49 84 3.5 6.1 0.00 0.00 0.00 54 1022.0
20260507135403 48 119 2.6 6.1 0.00 0.00 0.00 56 1022.0
20260507134503 48 129 4.3 6.1 0.00 0.00 0.00 56 1021.9
20260507133603 47 118 3.5 4.3 0.00 0.00 0.00 56 1021.9
20260507132703 46 90 2.6 4.3 0.00 0.00 0.00 56 1021.9
20260507131803 45 90 2.6 5.2 0.00 0.00 0.00 56 1021.9
20260507130903 44 94 3.5 5.2 0.00 0.00 0.00 55 1021.8
20260507130003 43 96 1.7 4.3 0.00 0.00 0.00 55 1021.8
20260507125403 43 96 1.7 3.5 0.00 0.00 0.00 55 1021.8
20260507124524 42 96 1.7 3.5 0.00 0.00 0.00 56 1021.8
20260507123603 42 96 1.7 6.1 0.00 0.00 0.00 56 1021.7
20260507122705 42 73 2.6 6.1 0.00 0.00 0.00 56 1021.6
20260507121803 43 72 3.5 5.2 0.00 0.00 0.00 56 1021.4
20260507120903 43 95 2.6 4.3 0.00 0.00 0.00 56 1021.4
20260507120024 43 102 2.6 4.3 0.00 0.00 0.00 56 1021.4
20260507115403 43 102 1.7 4.3 0.00 0.00 0.00 57 1021.4
20260507114503 43 102 2.6 4.3 0.00 0.00 0.00 57 1021.5
20260507113624 43 101 3.5 4.3 0.00 0.00 0.00 58 1021.5
20260507112703 43 83 2.6 4.3 0.00 0.00 0.00 58 1021.5
20260507111803 43 78 2.6 4.3 0.00 0.00 0.00 58 1021.4
20260507110903 44 77 2.6 4.3 0.00 0.00 0.00 58 1021.4
20260507110024 44 78 3.5 4.3 0.00 0.00 0.00 58 1021.4
20260507105403 44 78 2.6 4.3 0.00 0.00 0.00 58 1021.5
20260507104503 43 78 3.5 4.3 0.00 0.00 0.00 58 1021.6
20260507103603 43 78 1.7 4.3 0.00 0.00 0.00 58 1021.6
20260507102703 44 78 1.7 3.5 0.00 0.00 0.00 58 1021.6
20260507101803 43 78 2.6 4.3 0.00 0.00 0.00 58 1021.8
20260507100903 43 78 2.6 4.3 0.00 0.00 0.00 58 1021.9
20260507100003 43 89 3.5 5.2 0.00 0.00 0.00 58 1021.9
20260507095403 43 96 3.5 4.3 0.00 0.00 0.00 58 1022.0
20260507094503 43 96 2.6 3.5 0.00 0.00 0.00 58 1022.0
20260507093603 44 96 2.6 4.3 0.00 0.00 0.00 58 1022.1
20260507092724 44 96 2.6 4.3 0.00 0.01 0.00 58 1022.2
20260507091803 44 96 4.3 5.2 0.00 0.06 0.00 58 1022.1
20260507090903 44 107 4.3 5.2 0.00 0.08 0.00 58 1022.2
20260507090003 44 109 3.5 4.3 0.00 0.08 0.00 58 1022.3
20260507085403 44 109 3.5 4.3 0.00 0.09 0.00 58 1022.3
20260507084503 45 109 2.6 4.3 0.00 0.09 0.00 58 1022.3
20260507083603 45 109 2.6 4.3 0.00 0.09 0.00 58 1022.3
20260507082703 45 114 3.5 4.3 0.00 0.09 0.00 58 1022.3
20260507081824 45 115 2.6 3.5 0.00 0.09 0.00 58 1022.5
20260507080903 45 115 1.7 3.5 0.00 0.09 0.00 57 1022.6
20260507080003 45 115 1.7 3.5 0.00 0.09 0.00 56 1022.6
20260507075403 46 115 2.6 4.3 0.00 0.09 0.00 55 1022.6
20260507074503 46 115 3.5 4.3 0.00 0.09 0.00 54 1022.5
20260507073603 46 115 2.6 4.3 0.00 0.09 0.00 54 1022.7
20260507072703 47 116 2.6 4.3 0.00 0.09 0.00 53 1022.8
20260507071803 47 116 3.5 4.3 0.00 0.09 0.00 53 1022.8
20260507070924 47 117 3.5 4.3 0.00 0.09 0.00 53 1022.8
20260507070005 47 120 2.6 4.3 0.00 0.09 0.00 53 1022.8
20260507065403 47 120 2.6 4.3 0.00 0.09 0.00 53 1022.9
20260507064524 47 120 2.6 4.3 0.00 0.09 0.00 53 1022.8
20260507063603 47 120 3.5 5.2 0.00 0.09 0.00 52 1022.7
20260507062703 48 119 3.5 5.2 0.00 0.09 0.00 51 1022.7
20260507061803 48 89 3.5 5.2 0.00 0.09 0.00 49 1022.7
20260507060924 49 74 3.5 5.2 0.00 0.09 0.00 48 1022.6
20260507060024 49 71 4.3 5.2 0.00 0.09 0.00 47 1022.5
20260507055403 49 78 4.3 6.1 0.00 0.09 0.09 47 1022.5
20260507054503 49 97 3.5 6.1 0.00 0.09 0.09 47 1022.5
20260507053603 49 109 2.6 4.3 0.00 0.09 0.09 47 1022.5
20260507052703 50 109 2.6 7.0 0.00 0.09 0.09 47 1022.4
20260507051803 50 126 3.5 7.0 0.00 0.09 0.09 46 1022.3
20260507050903 50 97 4.3 7.0 0.00 0.09 0.09 45 1022.4
20260507050003 50 88 3.5 5.2 0.00 0.09 0.09 44 1022.4
20260507045403 51 75 2.6 5.2 0.00 0.09 0.09 43 1022.4
20260507044503 52 115 3.5 6.1 0.00 0.09 0.09 42 1022.4
20260507043624 53 86 3.5 6.1 0.00 0.09 0.09 40 1022.2
20260507042724 54 38 6.1 9.6 0.00 0.09 0.09 38 1022.0
20260507041803 54 33 6.1 9.6 0.00 0.09 0.09 38 1022.0
20260507040903 52 52 4.3 6.1 0.00 0.09 0.09 39 1022.1
20260507040003 52 100 3.5 7.0 0.00 0.09 0.09 40 1022.1
20260507035403 52 95 4.3 7.8 0.00 0.09 0.09 41 1022.2
20260507034503 51 330 3.5 7.8 0.00 0.09 0.09 43 1022.1
20260507033603 52 280 1.7 4.3 0.00 0.09 0.09 42 1021.9
20260507032724 53 237 2.6 3.5 0.00 0.09 0.09 38 1021.6
20260507031824 53 220 3.5 5.2 0.00 0.09 0.09 37 1021.5
20260507030903 54 216 4.3 5.2 0.00 0.09 0.09 36 1021.5
20260507030024 54 218 4.3 5.2 0.00 0.09 0.09 36 1021.5
20260507025403 55 223 2.6 5.2 0.00 0.09 0.09 35 1021.6
20260507024503 56 219 3.5 5.2 0.00 0.09 0.09 33 1021.4
20260507023624 57 208 4.3 5.2 0.00 0.09 0.09 32 1021.4
20260507022703 58 230 3.5 5.2 0.00 0.09 0.09 30 1021.3
20260507021803 59 269 3.5 6.1 0.00 0.09 0.09 29 1021.3
20260507020903 60 299 5.2 7.8 0.00 0.09 0.09 29 1021.3
20260507020003 61 291 5.2 9.6 0.00 0.09 0.09 29 1021.2
20260507015403 61 297 6.1 9.6 0.00 0.09 0.09 27 1021.3
20260507014503 61 287 7.0 12.2 0.00 0.09 0.09 28 1021.3
20260507013624 62 290 7.8 12.2 0.00 0.09 0.09 27 1021.3
20260507012703 63 300 7.8 11.3 0.00 0.09 0.09 27 1021.3
20260507011803 63 284 7.0 12.2 0.00 0.09 0.09 27 1021.3
20260507010903 63 287 7.8 13.9 0.00 0.09 0.09 27 1021.4
20260507010003 63 288 8.7 13.9 0.00 0.09 0.09 26 1021.4
20260507005424 63 298 9.6 15.6 0.00 0.09 0.09 27 1021.3
20260507004524 63 291 8.7 15.6 0.00 0.09 0.09 25 1021.3
20260507003603 64 301 10.4 17.4 0.00 0.09 0.09 26 1021.3
20260507002703 64 297 10.4 17.4 0.00 0.09 0.09 26 1021.3
20260507001803 64 294 9.6 13.9 0.00 0.09 0.09 26 1021.3
20260507000903 64 297 9.6 13.9 0.00 0.09 0.09 28 1021.3
20260507000003 63 285 10.4 19.1 0.00 0.09 0.09 27 1021.2
20260506235403 64 296 9.6 16.5 0.00 0.09 0.09 27 1021.1
20260506234503 63 289 9.6 16.5 0.00 0.09 0.09 28 1021.1
20260506233624 63 286 11.3 20.9 0.00 0.09 0.09 28 1021.1
20260506232724 63 267 10.4 20.9 0.00 0.09 0.09 27 1021.1
20260506231803 63 283 13.0 20.9 0.00 0.09 0.09 28 1021.1
20260506230903 63 272 11.3 33.0 0.00 0.09 0.09 29 1021.1
20260506230003 62 268 13.0 33.0 0.00 0.09 0.09 29 1021.0
20260506225424 62 278 14.8 33.0 0.00 0.09 0.09 29 1021.0
20260506224503 62 279 13.0 24.3 0.00 0.09 0.09 29 1021.1
20260506223603 62 271 13.9 23.5 0.00 0.09 0.09 29 1021.1
20260506222703 63 283 14.8 23.5 0.00 0.09 0.09 29 1021.2
20260506221803 62 264 13.0 24.3 0.00 0.09 0.09 29 1021.2
20260506220903 62 276 14.8 24.3 0.00 0.09 0.09 29 1021.3
20260506220003 62 275 13.0 23.5 0.00 0.09 0.09 29 1021.2
20260506215403 62 271 14.8 23.5 0.00 0.09 0.09 28 1021.4
20260506214503 62 280 15.6 23.5 0.00 0.09 0.09 30 1021.4
20260506213603 61 277 14.8 22.6 0.00 0.09 0.09 29 1021.3
20260506212703 62 275 14.8 25.2 0.00 0.09 0.09 30 1021.3
20260506211803 61 270 14.8 25.2 0.00 0.09 0.09 28 1021.5
20260506210903 60 267 15.6 26.1 0.00 0.09 0.09 28 1021.2
20260506210003 61 274 17.4 26.9 0.00 0.09 0.09 29 1021.2
20260506205403 61 275 19.1 26.9 0.00 0.09 0.09 30 1021.1
20260506204503 61 287 18.2 26.1 0.00 0.09 0.09 29 1021.2
20260506203624 61 283 18.2 26.9 0.00 0.09 0.09 29 1021.2
20260506202724 60 268 17.4 26.9 0.00 0.09 0.09 27 1021.3
20260506201824 60 276 16.5 26.9 0.00 0.09 0.09 28 1021.2
20260506200903 60 281 15.6 26.9 0.00 0.09 0.09 28 1021.2
20260506200003 59 272 18.2 26.9 0.00 0.09 0.09 28 1021.3
20260506195403 60 285 15.6 26.1 0.00 0.09 0.09 27 1021.4
20260506194524 60 288 14.8 23.5 0.00 0.09 0.09 30 1021.5
20260506193603 59 280 15.6 23.5 0.00 0.09 0.09 29 1021.4
20260506192703 59 291 13.9 24.3 0.00 0.09 0.09 29 1021.4
20260506191803 59 282 14.8 21.7 0.00 0.09 0.09 29 1021.4
20260506190903 58 290 14.8 23.5 0.00 0.09 0.09 30 1021.4
20260506190024 59 286 14.8 22.6 0.00 0.09 0.09 30 1021.3
20260506185403 58 288 13.0 22.6 0.00 0.09 0.09 29 1021.4
20260506184503 57 284 13.0 23.5 0.00 0.09 0.09 30 1021.4
20260506183603 56 278 15.6 24.3 0.00 0.09 0.09 30 1021.5
20260506182703 56 271 16.5 24.3 0.00 0.09 0.09 30 1021.6
20260506181803 56 275 15.6 24.3 0.00 0.09 0.09 32 1021.6
20260506180903 56 280 15.6 25.2 0.00 0.09 0.09 33 1021.4
20260506180003 55 279 14.8 25.2 0.00 0.09 0.09 31 1021.4
20260506175403 55 286 13.9 23.5 0.00 0.09 0.09 32 1021.3
20260506174524 55 283 17.4 26.1 0.00 0.09 0.09 33 1021.2
20260506173624 55 284 15.6 26.9 0.00 0.09 0.09 31 1021.3
20260506172703 54 276 17.4 26.1 0.00 0.09 0.09 31 1021.1
20260506171803 54 279 16.5 25.2 0.00 0.09 0.09 32 1020.9
20260506170903 54 285 16.5 27.8 0.00 0.09 0.09 32 1020.8
20260506170003 54 296 16.5 27.8 0.00 0.09 0.09 34 1020.6
20260506165403 54 293 16.5 25.2 0.00 0.09 0.09 38 1020.6
20260506164503 54 302 16.5 22.6 0.00 0.09 0.09 39 1020.5
20260506163624 53 290 14.8 26.9 0.00 0.09 0.09 39 1020.4
20260506162703 53 279 14.8 26.9 0.00 0.09 0.09 40 1020.3
20260506161803 52 287 14.8 26.9 0.00 0.09 0.09 41 1020.1
20260506160903 52 296 16.5 23.5 0.00 0.09 0.09 43 1020.0
20260506160025 52 280 16.5 25.2 0.00 0.09 0.09 43 1020.0
20260506155403 52 276 14.8 25.2 0.00 0.09 0.09 42 1019.9
20260506154503 52 293 13.9 21.7 0.00 0.09 0.09 49 1019.9
20260506153603 52 295 13.0 20.0 0.00 0.09 0.09 50 1019.7
20260506152724 52 293 13.0 20.0 0.00 0.09 0.09 50 1019.7
20260506151803 51 294 13.0 20.0 0.00 0.09 0.09 50 1019.5
20260506150924 51 292 13.0 21.7 0.00 0.09 0.09 51 1019.4
20260506150003 51 293 11.3 17.4 0.00 0.09 0.09 53 1019.4
20260506145403 50 284 7.0 13.9 0.00 0.09 0.09 54 1019.4
20260506144524 50 291 7.8 13.9 0.00 0.09 0.09 55 1019.2
20260506143603 49 282 7.8 13.9 0.00 0.09 0.09 55 1019.2